Simultaneous Nadir Overpasses (SNOs) Predictions

Prediction of SNOs between NOAA-19 and TERRA Satellite Orbit:

Table of predicted SNOs for the next 14.0 days since TLE Epoch: 2/17/2018
Index Date (NOAA-19) Time (NOAA-19) Lat,Lon (NOAA-19) SZA (NOAA-19 ) Date (TERRA) Time (TERRA) Lat,Lon (TERRA) SZA (TERRA ) Distance(km) Time Diff (sec)
1 02/18/2018 00:38:16 -76.63, 5.02 91.49 02/18/2018 00:38:22 -76.63, 5.17 91.48 3.70 6
2 02/18/2018 01:29:03 76.16, 174.12 88.13 02/18/2018 01:27:56 76.23, 171.47 88.06 70.64 67
3 02/20/2018 06:11:53 76.63, 101.68 87.73 02/20/2018 06:12:05 76.63, 101.74 87.73 1.69 12
4 02/20/2018 07:02:48 -76.28, -89.68 92.57 02/20/2018 07:01:39 -76.32, -91.67 92.64 52.56 69
5 02/22/2018 11:45:35 -76.64,-161.71 93.07 02/22/2018 11:45:50 -76.63,-161.72 93.09 1.66 15
6 02/22/2018 12:36:30 76.48, 6.18 86.80 02/22/2018 12:35:17 76.56, 5.68 86.83 15.04 73
7 02/24/2018 17:19:13 76.65, -65.11 86.13 02/24/2018 17:19:32 76.67, -65.01 86.15 2.71 19
8 02/24/2018 18:10:14 -76.60, 102.34 93.93 02/24/2018 18:09:01 -76.60, 102.39 93.95 1.37 73
9 02/26/2018 22:52:54 -76.67, 31.48 94.69 02/26/2018 22:53:17 -76.66, 31.52 94.69 1.63 23
10 02/26/2018 23:43:52 76.60,-160.98 85.25 02/26/2018 23:42:44 76.58,-161.08 85.22 3.25 68
11 03/01/2018 04:26:33 76.69, 128.07 84.50 03/01/2018 04:26:59 76.69, 128.21 84.51 3.60 26




NCC Satellite Simultaneous Nadir Overpasses (SNOs) Prediction Service
